FW8587 Weather Reports


time (UTC)temp
F
wind
direction
speed
knots
gust
knots
rain 1hr
in
rain 24hr
in
rain mn
in
humidity
%
barometer
mb
20260505153205 55 154 0.0 0.9 0.00 0.00 0.00 87 1016.4
20260505152705 54 155 0.0 0.0 0.00 0.00 0.00 87 1016.5
20260505152208 54 155 0.0 1.7 0.00 0.00 0.00 87 1016.5
20260505151207 54 142 0.0 0.9 0.00 0.00 0.00 87 1016.4
20260505150707 54 142 0.9 1.7 0.00 0.00 0.00 87 1016.4
20260505150205 54 129 0.0 0.0 0.00 0.00 0.00 88 1016.3
20260505140208 54 99 0.0 0.0 0.00 0.00 0.00 87 1015.9
20260505130206 54 73 0.0 0.0 0.00 0.00 0.00 86 1015.6
20260505124704 54 109 0.0 0.9 0.00 0.00 0.00 87 1015.4
20260505124205 54 109 0.0 0.9 0.00 0.00 0.00 87 1015.4
20260505123705 54 119 0.0 0.9 0.00 0.00 0.00 87 1015.3
20260505123205 54 153 0.0 0.0 0.00 0.00 0.00 88 1015.3
20260505122205 54 67 0.0 0.9 0.00 0.00 0.00 88 1015.2
20260505121707 54 57 0.0 0.0 0.00 0.00 0.00 89 1015.2
20260505121206 54 57 0.0 0.0 0.00 0.00 0.00 88 1015.2
20260505120705 54 57 0.0 0.0 0.00 0.00 0.00 89 1015.2
20260505115705 54 57 0.0 0.0 0.00 0.00 0.00 89 1015.1
20260505114706 54 57 0.0 0.0 0.00 0.00 0.00 89 1015.0
20260505114206 54 52 0.0 0.9 0.00 0.00 0.00 89 1015.1
20260505113205 54 51 0.0 0.0 0.00 0.00 0.00 89 1015.0
20260505112205 54 51 0.0 0.9 0.00 0.00 0.00 89 1015.1
20260505111705 54 51 0.0 0.9 0.00 0.00 0.00 89 1015.1
20260505111205 54 51 0.0 0.9 0.00 0.00 0.00 89 1015.2
20260505110206 54 51 0.0 0.0 0.00 0.00 0.00 89 1015.0
20260505102207 54 296 0.0 0.0 0.00 0.00 0.00 89 1014.7
20260505101707 54 296 0.0 0.0 0.00 0.00 0.00 89 1014.7
20260505100705 54 296 0.0 0.0 0.00 0.00 0.00 89 1014.8
20260505100207 54 296 0.0 0.0 0.00 0.00 0.00 89 1014.8
20260505095706 54 296 0.0 0.0 0.00 0.00 0.00 89 1014.8
20260505094705 54 296 0.0 0.0 0.00 0.00 0.00 89 1014.7
20260505094208 54 296 0.0 0.0 0.00 0.00 0.00 89 1014.6
20260505093705 54 296 0.0 0.0 0.00 0.00 0.00 89 1014.6
20260505093205 54 296 0.0 0.9 0.00 0.00 0.00 89 1014.5
20260505092705 53 294 0.0 0.0 0.00 0.00 0.00 89 1014.5
20260505092205 54 294 0.0 0.9 0.00 0.00 0.00 89 1014.5
20260505091705 54 297 0.0 0.0 0.00 0.00 0.00 89 1014.5
20260505090705 54 297 0.0 0.0 0.00 0.00 0.00 89 1014.5
20260505090205 54 297 0.0 0.0 0.00 0.00 0.00 89 1014.4
20260505085205 54 297 0.0 1.7 0.00 0.00 0.00 89 1014.5
20260505084206 54 104 0.0 0.9 0.00 0.00 0.00 89 1014.4
20260505083708 54 106 0.0 0.9 0.00 0.00 0.00 89 1014.4
20260505083205 54 106 0.0 0.9 0.00 0.00 0.00 89 1014.4
20260505082705 54 117 0.0 0.9 0.00 0.00 0.00 89 1014.4
20260505082206 54 257 0.0 0.0 0.00 0.00 0.00 89 1014.5
20260505081708 54 257 0.0 0.0 0.00 0.00 0.00 89 1014.5
20260505081204 54 257 0.0 0.0 0.00 0.00 0.00 89 1014.5
20260505080705 54 257 0.0 0.0 0.00 0.00 0.00 89 1014.5
20260505080207 53 257 0.0 0.9 0.00 0.00 0.00 89 1014.6
20260505075704 53 74 0.0 0.0 0.00 0.00 0.00 89 1014.6
20260505075206 53 74 0.0 1.7 0.00 0.00 0.00 89 1014.5
20260505074704 53 69 0.0 0.9 0.00 0.00 0.00 89 1014.5
20260505074205 53 73 0.0 0.9 0.00 0.00 0.00 89 1014.3
20260505073704 53 77 0.0 0.9 0.00 0.00 0.00 90 1014.3
20260505073204 53 86 0.0 1.7 0.00 0.00 0.00 90 1014.2
20260505072204 53 308 0.0 1.7 0.00 0.00 0.00 90 1014.1
20260505071705 53 313 0.0 0.9 0.00 0.00 0.00 90 1014.0
20260505071205 53 68 0.0 1.7 0.00 0.00 0.00 90 1013.9
20260505070709 53 96 0.0 1.7 0.00 0.00 0.00 90 1013.8
20260505070205 53 13 0.0 0.0 0.00 0.00 0.00 90 1013.7
20260505065705 53 13 0.0 0.0 0.00 0.00 0.00 90 1013.7
20260505065206 53 13 0.0 0.9 0.00 0.00 0.00 90 1013.7
20260505064705 53 13 0.0 0.9 0.00 0.00 0.00 90 1013.6
20260505063705 53 307 0.0 0.0 0.00 0.00 0.00 90 1013.6
20260505063205 53 307 0.0 0.0 0.00 0.00 0.00 90 1013.6
20260505062707 53 307 0.0 0.0 0.00 0.00 0.00 90 1013.6
20260505062204 53 307 0.0 0.0 0.00 0.00 0.00 89 1013.6
20260505061205 53 306 0.0 0.0 0.00 0.00 0.00 90 1013.5
20260505060705 53 306 0.0 0.9 0.00 0.00 0.00 90 1013.5
20260505060206 53 306 0.0 0.0 0.00 0.00 0.00 89 1013.4
20260505055705 53 306 0.0 0.0 0.00 0.00 0.00 89 1013.3
20260505055208 53 306 0.0 0.0 0.00 0.00 0.00 89 1013.2
20260505054704 53 306 0.0 0.0 0.00 0.00 0.00 89 1013.2
20260505054204 53 306 0.0 0.9 0.00 0.00 0.00 88 1013.2
20260505053705 53 306 0.0 0.0 0.00 0.00 0.00 88 1013.2
20260505053204 53 306 0.0 0.0 0.00 0.00 0.00 88 1013.3
20260505052706 53 306 0.0 0.0 0.00 0.00 0.00 87 1013.3
20260505052204 54 306 0.0 0.9 0.00 0.00 0.00 87 1013.2
20260505051704 54 306 0.0 0.0 0.00 0.00 0.00 87 1013.2
20260505051206 54 306 0.0 0.0 0.00 0.00 0.00 86 1013.2
20260505050706 54 306 0.0 0.0 0.00 0.00 0.00 86 1013.2
20260505041705 57 297 0.0 0.9 0.00 0.00 0.00 82 1012.8
20260505041207 57 297 0.0 0.9 0.00 0.00 0.00 81 1012.8
20260505040705 57 297 0.0 0.9 0.00 0.00 0.00 81 1012.8
20260505040205 58 297 0.0 1.7 0.00 0.00 0.00 80 1012.6
20260505035704 58 237 0.0 0.9 0.00 0.00 0.00 79 1012.6
20260505035204 59 235 0.0 1.7 0.00 0.00 0.00 78 1012.5
20260505034705 59 235 0.0 0.0 0.00 0.00 0.00 78 1012.4
20260505034208 60 235 0.9 2.6 0.00 0.00 0.00 77 1012.3
20260505033704 60 325 0.0 0.0 0.00 0.00 0.00 76 1012.2
20260505033204 60 325 0.0 1.7 0.00 0.00 0.00 76 1012.1
20260505032205 61 245 0.0 2.6 0.00 0.00 0.00 74 1011.9
20260505030708 62 337 0.9 2.6 0.00 0.00 0.00 71 1011.8
20260505030205 63 284 0.9 2.6 0.00 0.00 0.00 70 1011.7
20260505025204 64 320 0.9 2.6 0.00 0.00 0.00 68 1011.6
20260505024705 64 313 0.9 2.6 0.00 0.00 0.00 66 1011.6
20260505024207 65 338 0.9 2.6 0.00 0.00 0.00 65 1011.6
20260505023704 65 250 1.7 4.3 0.00 0.00 0.00 63 1011.5
20260505022707 66 358 0.9 2.6 0.00 0.00 0.00 61 1011.4
20260505021706 67 283 1.7 7.0 0.00 0.00 0.00 60 1011.3
20260505020705 68 281 0.9 5.2 0.00 0.00 0.00 60 1011.2
20260505020205 68 276 0.9 2.6 0.00 0.00 0.00 60 1011.2
20260505015707 69 318 0.9 5.2 0.00 0.00 0.00 58 1011.1
20260505015207 69 294 0.9 4.3 0.00 0.00 0.00 58 1011.1
20260505014705 70 275 0.0 1.7 0.00 0.00 0.00 57 1011.0
20260505014207 70 267 1.7 6.1 0.00 0.00 0.00 55 1011.1
20260505013204 71 294 0.9 2.6 0.00 0.00 0.00 52 1011.2
20260505012706 71 247 0.0 2.6 0.00 0.00 0.00 53 1011.2
20260505011704 72 235 0.9 2.6 0.00 0.00 0.00 55 1011.3
20260505011204 72 243 0.9 2.6 0.00 0.00 0.00 54 1011.2
20260505010704 72 240 1.7 2.6 0.00 0.00 0.00 53 1011.2
20260505010207 73 311 1.7 2.6 0.00 0.00 0.00 54 1011.1
20260505005205 73 271 0.9 2.6 0.00 0.00 0.00 48 1011.1
20260505004705 73 317 0.9 2.6 0.00 0.00 0.00 49 1011.0
20260505004207 73 322 1.7 4.3 0.00 0.00 0.00 47 1011.0
20260505003704 74 320 1.7 7.0 0.00 0.00 0.00 46 1011.0
20260505003204 74 291 0.9 2.6 0.00 0.00 0.00 48 1010.9
20260505002705 74 274 1.7 2.6 0.00 0.00 0.00 48 1011.0
20260505002205 74 302 1.7 2.6 0.00 0.00 0.00 48 1011.0
20260505001705 74 311 1.7 2.6 0.00 0.00 0.00 48 1010.9
20260505001204 74 324 1.7 4.3 0.00 0.00 0.00 48 1010.9
20260505000706 75 287 1.7 5.2 0.00 0.00 0.00 48 1010.9
20260505000205 75 326 1.7 4.3 0.00 0.00 0.00 48 1010.9
20260504235704 76 295 0.9 4.3 0.00 0.00 0.00 48 1010.9
20260504235205 76 221 1.7 2.6 0.00 0.00 0.00 48 1010.9
20260504234706 76 175 0.9 2.6 0.00 0.00 0.00 50 1010.8
20260504233704 76 304 0.9 2.6 0.00 0.00 0.00 48 1010.8
20260504233204 77 291 1.7 5.2 0.00 0.00 0.00 48 1010.9
20260504232704 77 219 0.9 5.2 0.00 0.00 0.00 47 1010.8
20260504232205 77 178 0.9 2.6 0.00 0.00 0.00 49 1010.8
20260504231707 77 311 1.7 2.6 0.00 0.00 0.00 47 1010.8
20260504231205 78 317 1.7 5.2 0.00 0.00 0.00 48 1010.8
20260504230206 78 250 1.7 4.3 0.00 0.00 0.00 50 1011.0
20260504225705 78 279 1.7 2.6 0.00 0.00 0.00 50 1010.9
20260504225204 78 342 1.7 4.3 0.00 0.00 0.00 52 1010.9
20260504224204 78 343 1.7 6.1 0.00 0.00 0.00 49 1010.9
20260504223706 78 195 0.9 2.6 0.00 0.00 0.00 53 1010.9
20260504223204 78 205 1.7 4.3 0.00 0.00 0.00 50 1010.8
20260504222704 78 238 0.9 2.6 0.00 0.00 0.00 51 1010.8
20260504222204 78 321 1.7 2.6 0.00 0.00 0.00 53 1011.0
20260504221707 78 259 1.7 2.6 0.00 0.00 0.00 50 1011.0
20260504221205 78 316 1.7 2.6 0.00 0.00 0.00 48 1011.1
20260504220705 78 131 1.7 2.6 0.00 0.00 0.00 49 1011.0
20260504220208 78 139 0.9 2.6 0.00 0.00 0.00 50 1011.0
20260504215204 78 175 0.9 2.6 0.00 0.00 0.00 48 1011.3
20260504214707 78 311 0.9 2.6 0.00 0.00 0.00 50 1011.4
20260504213704 77 226 0.9 2.6 0.00 0.00 0.00 52 1011.4
20260504213207 77 277 0.9 4.3 0.00 0.00 0.00 51 1011.5
20260504212704 76 236 0.9 2.6 0.00 0.00 0.00 50 1011.6
20260504212204 76 199 1.7 2.6 0.00 0.00 0.00 50 1011.6
20260504211704 76 274 0.9 6.1 0.00 0.00 0.00 50 1011.6
20260504211207 77 247 1.7 2.6 0.00 0.00 0.00 50 1011.7
20260504210704 76 310 0.9 2.6 0.00 0.00 0.00 51 1011.7
20260504205704 75 267 0.9 1.7 0.00 0.00 0.00 56 1011.8
20260504205207 75 335 1.7 2.6 0.00 0.00 0.00 54 1011.8
20260504204705 75 316 0.9 2.6 0.00 0.00 0.00 58 1011.9
20260504204204 75 277 1.7 4.3 0.00 0.00 0.00 58 1012.0
20260504203704 75 261 0.9 2.6 0.00 0.00 0.00 58 1011.9
20260504203204 75 148 0.9 2.6 0.00 0.00 0.00 58 1012.0
20260504202704 74 64 1.7 6.1 0.00 0.00 0.00 58 1011.9
20260504202206 74 288 0.9 2.6 0.00 0.00 0.00 57 1011.9
20260504201704 74 247 1.7 2.6 0.00 0.00 0.00 58 1012.0
20260504201204 73 262 0.0 2.6 0.00 0.00 0.00 59 1012.0
20260504200704 74 60 0.9 2.6 0.00 0.00 0.00 58 1012.1
20260504200205 73 119 0.9 5.2 0.00 0.00 0.00 59 1012.2
20260504194703 73 70 0.9 2.6 0.00 0.00 0.00 60 1012.3
20260504194204 73 121 1.7 2.6 0.00 0.00 0.00 60 1012.3
20260504193703 72 92 1.7 6.1 0.00 0.00 0.00 60 1012.3
20260504193204 72 217 0.0 2.6 0.00 0.00 0.00 62 1012.4
20260504192704 71 97 0.9 2.6 0.00 0.00 0.00 63 1012.3
20260504192204 71 115 1.7 4.3 0.00 0.00 0.00 63 1012.4
20260504191204 69 136 0.9 5.2 0.00 0.00 0.00 65 1012.4
20260504190706 70 93 2.6 6.1 0.00 0.00 0.00 63 1012.4
20260504190209 70 89 0.9 2.6 0.00 0.00 0.00 64 1012.6
20260504185706 70 331 1.7 2.6 0.00 0.00 0.00 64 1012.6
20260504185206 69 284 0.9 2.6 0.00 0.00 0.00 65 1012.6
20260504184706 69 299 0.9 2.6 0.00 0.00 0.00 66 1012.7
20260504184206 69 320 0.9 2.6 0.00 0.00 0.00 65 1012.7
20260504183707 68 91 0.9 2.6 0.00 0.00 0.00 65 1012.7
20260504183205 68 286 1.7 5.2 0.00 0.00 0.00 68 1012.7
20260504182706 67 326 0.9 1.7 0.00 0.00 0.00 68 1012.7
20260504182206 67 177 0.9 2.6 0.00 0.00 0.00 68 1012.7
20260504181206 66 120 1.7 2.6 0.00 0.00 0.00 68 1012.7
20260504175705 65 103 0.0 5.2 0.00 0.00 0.00 71 1012.7
20260504175205 64 217 0.9 2.6 0.00 0.00 0.00 74 1012.7
20260504174706 63 305 0.9 2.6 0.00 0.00 0.00 74 1012.8
20260504174208 63 252 0.0 1.7 0.00 0.00 0.00 76 1012.7
20260504173705 62 45 0.0 0.9 0.00 0.00 0.00 76 1012.8
20260504173205 62 284 0.9 2.6 0.00 0.00 0.00 76 1012.7
20260504172705 62 304 0.0 0.9 0.00 0.00 0.00 77 1012.7
20260504172205 61 294 0.0 0.9 0.00 0.00 0.00 78 1012.7
20260504171708 61 19 0.0 0.9 0.00 0.00 0.00 79 1012.6
20260504170706 60 120 0.9 2.6 0.00 0.00 0.00 79 1012.6
20260504170206 60 300 0.9 2.6 0.00 0.00 0.00 80 1012.6
20260504160205 57 9 0.9 2.6 0.00 0.00 0.00 85 1012.3